Regional Weather Roundup
Issued by NWS

Home | Current Version | Previous Version | Graphics & Text | Print | Product List | Glossary On
Versions: 1 2 3 4 5 6 7 8 9 10 11 12 13 14 15 16 17 18 19 20 21 22 23 24 25 26 27 28 29 30 31 32 33 34 35 36 37 38 39 40 41 42 43 44 45 46 47 48 49 50
000
ASUS43 KIND 051559
RWRIN

WEATHER ROUNDUP FOR INDIANA
NATIONAL WEATHER SERVICE INDIANAPOLIS IN
1200 PM EDT SUN JUL 05 2015

NOTE: "FAIR" INDICATES FEW OR NO CLOUDS BELOW 12,000 FEET WITH NO
SIGNIFICANT WEATHER AND/OR OBSTRUCTIONS TO VISIBILITY.

* - STATION DOES NOT REPORT WEATHER SUCH AS PRECIPITATION OR FOG.

+ - STATION NOT QUALITY CONTROLLED BY THE NATIONAL WEATHER SERVICE.
    USE DATA WITH CAUTION...ESPECIALLY DEWPOINT AND RELATIVE
    HUMIDITY OBSERVATIONS.

INZ001>003-010>013-019-020-051700-
NORTHWEST INDIANA

CITY           SKY/WX    TMP DP  RH WIND       PRES   REMARKS
GARY /AIRPORT/ MOSUNNY  N/A N/A N/A CALM      30.10S
KNOX *+        SUNNY     77  59  53 S5        30.10S
MONTICELLO +   SUNNY     77  61  57 E3        30.10S
RENSSELAER +   SUNNY     77  63  61 SE5       30.10S

$$

LMZ046-743>745-051700-
SOUTHERN LAKE MICHIGAN

STATION/POSITION TIME  TEMP    WIND        PRES    WAVE
                       AIR SEA DIR/SP/G            HT
                 (UTC) (F)     (DEG/KT/KT) (MB)    (FT)
BURNS HARBOR     1500   71     360/  5/  6 1019.6S
MICHIGAN CITY    1500   72     280/  2/  3   N/A
5NW MICH CITY    1500   72 66  320/  2/  2   N/A     0

$$

INZ004-005-014>016-021>024-051700-
NORTH CENTRAL INDIANA

CITY           SKY/WX    TMP DP  RH WIND       PRES   REMARKS
GOSHEN         SUNNY     76  60  57 S5        30.12S
SOUTH BEND     SUNNY     78  60  53 S6        30.12S
WARSAW +         N/A     77  59  53 S3        30.12S

$$

INZ006>009-017-018-025>027-051700-
NORTHEAST INDIANA

CITY           SKY/WX    TMP DP  RH WIND       PRES   REMARKS
ANGOLA *+        N/A     79  72  78 S5        30.12F
FORT WAYNE     CLOUDY    79  60  52 CALM      30.13S

$$

INZ028-029-035-036-043>045-051>053-051700-
WEST CENTRAL INDIANA

CITY           SKY/WX    TMP DP  RH WIND       PRES   REMARKS
CRAWFORDSVL +  MOSUNNY   75  55  48 SE3       30.11R
GREENCASTLE +  MOSUNNY   77  59  53 CALM      30.11S
LAFAYETTE      SUNNY     77  61  57 SE5       30.10S
TERRE HAUTE    MOSUNNY   78  65  63 E5        30.09S

$$

INZ030>032-037>040-046>048-054>057-064-065-051700-
CENTRAL INDIANA

CITY           SKY/WX    TMP DP  RH WIND       PRES   REMARKS
COLUMBUS       SUNNY     75  63  64 E3        30.11S
FRANKFORT +    MOSUNNY   77  61  58 CALM      30.13R
GREENWOOD *+   PTSUNNY   77  61  57 SE5       30.11R
INDIANAPOLIS   MOSUNNY   79  60  52 SE7       30.09R
-EAGLE CREEK   MOSUNNY   78  61  55 CALM      30.10R
KOKOMO *+      MOSUNNY   73  63  68 CALM      30.11S
MT COMFORT *+  MOSUNNY   79  50  36 SE5       30.12R
SHELBYVILLE    PTSUNNY   77  62  59 E5        30.10S

$$

INZ033-034-041-042-049-050-058-059-051700-
EAST CENTRAL INDIANA

CITY           SKY/WX    TMP DP  RH WIND       PRES   REMARKS
MUNCIE         MOSUNNY   78  59  51 VRB3      30.12R

$$

INZ060-061-067>069-081>083-085>088-051700-
SOUTHWEST INDIANA

CITY           SKY/WX    TMP DP  RH WIND       PRES   REMARKS
EVANSVILLE     PTSUNNY   80  70  71 VRB3      30.08R HAZE
HUNTINGBURG *+ CLOUDY    75  68  78 E6        30.09R

$$

INZ062-063-066-070>080-084-089>092-051700-
SOUTH CENTRAL AND SOUTHEAST INDIANA

CITY           SKY/WX    TMP DP  RH WIND       PRES   REMARKS
BLOOMINGTON    MOSUNNY   78  66  66 E7        30.10R
MADISON *+     CLOUDY    73  61  64 E5        30.13R
SEYMOUR +      CLOUDY    77  66  69 E5        30.10R

$$




USA.gov is the U.S. government's official web portal to all federal, state and local government web resources and services.